Time,TemperatureF,DewpointF,PressureIn,WindDirection,WindDirectionDegrees,WindSpeedMPH,WindSpeedGustMPH,Humidity,HourlyPrecipIn,Conditions,Clouds,dailyrainin,SoftwareType,DateUTC
2013-01-02 00:04:00,30.1,7.2,30.27,SSW,203,0.0,0.0,33,0.00,,,0.00,WSDL version 420,2013-01-02 08:04:00,
2013-01-02 00:09:00,29.9,7.0,30.27,SSW,203,0.0,0.0,33,0.00,,,0.00,WSDL version 420,2013-01-02 08:09:00,
2013-01-02 00:14:00,29.8,6.9,30.24,SSW,203,0.0,0.0,33,0.00,,,0.00,WSDL version 420,2013-01-02 08:14:00,
2013-01-02 00:19:00,29.4,7.1,30.24,SSW,203,0.0,0.0,34,0.00,,,0.00,WSDL version 420,2013-01-02 08:19:00,
2013-01-02 00:24:00,29.5,6.9,30.24,SSW,203,0.0,3.1,34,0.00,,,0.00,WSDL version 420,2013-01-02 08:24:00,
2013-01-02 00:29:00,29.4,7.1,30.24,SSW,203,0.0,3.1,34,0.00,,,0.00,WSDL version 420,2013-01-02 08:29:00,
2013-01-02 00:34:00,29.3,7.1,30.24,SSW,203,0.0,2.7,34,0.00,,,0.00,WSDL version 420,2013-01-02 08:34:00,
2013-01-02 00:39:00,29.6,7.3,30.24,SSW,203,0.0,2.7,34,0.00,,,0.00,WSDL version 420,2013-01-02 08:39:00,
2013-01-02 00:44:00,29.7,6.8,30.24,WSW,248,2.5,4.0,33,0.00,,,0.00,WSDL version 420,2013-01-02 08:44:00,
2013-01-02 00:49:00,29.8,6.9,30.24,WNW,283,2.8,5.4,33,0.00,,,0.00,WSDL version 420,2013-01-02 08:49:00,
2013-01-02 00:54:00,30.0,7.1,30.24,WNW,293,2.7,5.4,33,0.00,,,0.00,WSDL version 420,2013-01-02 08:54:00,
2013-01-02 00:59:00,29.7,6.8,30.27,West,270,1.0,4.9,33,0.00,,,0.00,WSDL version 420,2013-01-02 08:59:00,
2013-01-02 01:04:00,30.1,7.2,30.27,SW,225,3.5,4.0,33,0.00,,,0.00,WSDL version 420,2013-01-02 09:04:00,
2013-01-02 01:09:00,30.7,7.7,30.27,SW,225,2.6,4.0,33,0.00,,,0.00,WSDL version 420,2013-01-02 09:09:00,
2013-01-02 01:14:00,31.5,8.5,30.24,SW,225,3.5,5.4,33,0.00,,,0.00,WSDL version 420,2013-01-02 09:14:00,
2013-01-02 01:19:00,32.4,6.5,30.24,SW,228,3.7,5.4,33,0.00,,,0.00,WSDL version 420,2013-01-02 09:19:00,
2013-01-02 01:24:00,33.2,7.2,30.24,SW,225,3.1,5.4,33,0.00,,,0.00,WSDL version 420,2013-01-02 09:24:00,
2013-01-02 01:29:00,33.4,7.4,30.24,SW,219,0.8,4.9,33,0.00,,,0.00,WSDL version 420,2013-01-02 09:29:00,
2013-01-02 01:34:00,32.9,7.0,30.24,SSW,203,2.0,3.6,33,0.00,,,0.00,WSDL version 420,2013-01-02 09:34:00,
2013-01-02 01:39:00,32.3,6.9,30.24,SSW,203,0.2,3.1,33,0.00,,,0.00,WSDL version 420,2013-01-02 09:39:00,
2013-01-02 01:44:00,31.4,8.4,30.27,SSW,203,0.0,2.7,33,0.00,,,0.00,WSDL version 420,2013-01-02 09:44:00,
2013-01-02 01:49:00,30.4,7.4,30.27,South,180,0.0,2.2,33,0.00,,,0.00,WSDL version 420,2013-01-02 09:49:00,
2013-01-02 01:55:00,29.7,6.8,30.27,South,180,0.0,0.0,33,0.00,,,0.00,WSDL version 420,2013-01-02 09:55:00,
2013-01-02 02:00:00,28.7,6.0,30.24,South,180,0.0,0.0,34,0.00,,,0.00,WSDL version 420,2013-01-02 10:00:00,
2013-01-02 02:05:00,28.3,6.1,30.24,South,180,1.0,2.7,34,0.00,,,0.00,WSDL version 420,2013-01-02 10:05:00,
2013-01-02 02:10:00,27.7,6.0,30.24,South,180,0.0,2.7,34,0.00,,,0.00,WSDL version 420,2013-01-02 10:10:00,
2013-01-02 02:15:00,27.0,5.4,30.24,South,180,0.0,0.0,35,0.00,,,0.00,WSDL version 420,2013-01-02 10:15:00,
2013-01-02 02:20:00,26.5,5.1,30.24,South,180,1.3,3.1,35,0.00,,,0.00,WSDL version 420,2013-01-02 10:20:00,
2013-01-02 02:25:00,27.4,5.9,30.24,SSW,203,2.5,3.6,35,0.00,,,0.00,WSDL version 420,2013-01-02 10:25:00,
2013-01-02 02:30:00,29.2,7.5,30.24,SSW,203,2.4,4.0,35,0.00,,,0.00,WSDL version 420,2013-01-02 10:30:00,
2013-01-02 02:35:00,29.8,8.1,30.24,SSW,203,0.0,4.0,35,0.00,,,0.00,WSDL version 420,2013-01-02 10:35:00,
2013-01-02 02:40:00,30.1,8.3,30.24,SSW,203,0.0,2.2,35,0.00,,,0.00,WSDL version 420,2013-01-02 10:40:00,
2013-01-02 02:45:00,30.7,8.4,30.24,SSW,203,1.0,2.7,34,0.00,,,0.00,WSDL version 420,2013-01-02 10:45:00,
2013-01-02 02:50:00,30.3,8.2,30.24,SSW,203,1.4,3.6,35,0.00,,,0.00,WSDL version 420,2013-01-02 10:50:00,
2013-01-02 02:55:00,30.0,8.1,30.24,SSW,203,2.3,3.6,35,0.00,,,0.00,WSDL version 420,2013-01-02 10:55:00,
2013-01-02 03:00:00,29.5,7.7,30.24,SSW,203,2.2,3.6,35,0.00,,,0.00,WSDL version 420,2013-01-02 11:00:00,
2013-01-02 03:05:00,29.3,7.6,30.24,SSW,203,0.0,3.6,35,0.00,,,0.00,WSDL version 420,2013-01-02 11:05:00,
2013-01-02 03:10:00,29.0,7.3,30.24,SSW,203,2.5,3.6,35,0.00,,,0.00,WSDL version 420,2013-01-02 11:10:00,
2013-01-02 03:15:00,29.1,7.5,30.24,SSW,203,0.0,3.6,36,0.00,,,0.00,WSDL version 420,2013-01-02 11:15:00,
2013-01-02 03:20:00,29.4,7.7,30.24,SSW,203,0.0,2.7,35,0.00,,,0.00,WSDL version 420,2013-01-02 11:20:00,
2013-01-02 03:25:00,29.5,7.8,30.24,SSW,203,0.0,2.7,35,0.00,,,0.00,WSDL version 420,2013-01-02 11:25:00,
2013-01-02 03:30:00,29.9,8.1,30.24,SSW,203,0.0,2.7,35,0.00,,,0.00,WSDL version 420,2013-01-02 11:30:00,
2013-01-02 03:35:00,29.4,8.0,30.24,SSW,203,0.0,2.7,36,0.00,,,0.00,WSDL version 420,2013-01-02 11:35:00,
2013-01-02 03:40:00,28.8,7.7,30.24,SSW,203,0.0,2.7,36,0.00,,,0.00,WSDL version 420,2013-01-02 11:40:00,
2013-01-02 03:45:00,28.2,7.2,30.24,SSW,203,1.1,3.6,36,0.00,,,0.00,WSDL version 420,2013-01-02 11:45:00,
2013-01-02 03:50:00,28.2,7.2,30.24,SSW,203,0.0,3.6,36,0.00,,,0.00,WSDL version 420,2013-01-02 11:50:00,
2013-01-02 03:55:00,27.7,6.7,30.24,SSW,203,0.0,3.6,36,0.00,,,0.00,WSDL version 420,2013-01-02 11:55:00,
2013-01-02 04:00:00,27.3,6.5,30.24,SSW,203,0.0,2.7,37,0.00,,,0.00,WSDL version 420,2013-01-02 12:00:00,
2013-01-02 04:06:00,27.0,6.6,30.24,SSW,203,0.0,2.2,37,0.00,,,0.00,WSDL version 420,2013-01-02 12:06:00,
2013-01-02 04:11:00,27.3,6.9,30.24,SSW,203,0.0,2.7,37,0.00,,,0.00,WSDL version 420,2013-01-02 12:11:00,
2013-01-02 04:16:00,27.1,7.2,30.24,SSW,203,0.0,3.1,38,0.00,,,0.00,WSDL version 420,2013-01-02 12:16:00,
2013-01-02 04:21:00,26.7,6.8,30.24,SSW,203,0.0,3.1,38,0.00,,,0.00,WSDL version 420,2013-01-02 12:21:00,
2013-01-02 04:26:00,26.0,6.6,30.24,SSW,203,0.0,2.2,39,0.00,,,0.00,WSDL version 420,2013-01-02 12:26:00,
2013-01-02 04:31:00,26.1,6.8,30.24,SSW,203,0.0,0.0,39,0.00,,,0.00,WSDL version 420,2013-01-02 12:31:00,
2013-01-02 04:36:00,26.2,6.9,30.24,SSW,203,0.0,0.0,39,0.00,,,0.00,WSDL version 420,2013-01-02 12:36:00,
2013-01-02 04:41:00,26.2,7.1,30.24,SSW,203,0.0,0.0,40,0.00,,,0.00,WSDL version 420,2013-01-02 12:41:00,
2013-01-02 04:46:00,27.1,7.9,30.24,SSW,203,3.0,3.6,39,0.00,,,0.00,WSDL version 420,2013-01-02 12:46:00,
2013-01-02 04:51:00,27.8,8.3,30.24,SSW,203,0.0,3.6,39,0.00,,,0.00,WSDL version 420,2013-01-02 12:51:00,
2013-01-02 04:56:00,27.8,8.4,30.24,SSW,203,0.0,2.7,39,0.00,,,0.00,WSDL version 420,2013-01-02 12:56:00,
2013-01-02 05:01:00,28.8,9.3,30.24,SSW,203,0.0,3.1,39,0.00,,,0.00,WSDL version 420,2013-01-02 13:01:00,
2013-01-02 05:06:00,29.7,9.6,30.24,SSW,203,2.5,3.6,38,0.00,,,0.00,WSDL version 420,2013-01-02 13:06:00,
2013-01-02 05:11:00,30.0,9.4,30.24,SSW,203,2.5,3.6,37,0.00,,,0.00,WSDL version 420,2013-01-02 13:11:00,
2013-01-02 05:16:00,30.1,9.4,30.24,SSW,203,2.7,3.1,37,0.00,,,0.00,WSDL version 420,2013-01-02 13:16:00,
2013-01-02 05:21:00,29.9,9.3,30.24,SSW,203,1.7,3.6,37,0.00,,,0.00,WSDL version 420,2013-01-02 13:21:00,
2013-01-02 05:26:00,29.7,9.0,30.24,SSW,203,0.7,3.6,37,0.00,,,0.00,WSDL version 420,2013-01-02 13:26:00,
2013-01-02 05:31:00,29.1,8.5,30.24,SSE,158,0.0,3.1,37,0.00,,,0.00,WSDL version 420,2013-01-02 13:31:00,
2013-01-02 05:36:00,28.6,8.1,30.24,SSE,158,0.0,3.1,37,0.00,,,0.00,WSDL version 420,2013-01-02 13:36:00,
2013-01-02 05:41:00,28.4,8.2,30.24,SSE,158,0.0,2.2,38,0.00,,,0.00,WSDL version 420,2013-01-02 13:41:00,
2013-01-02 05:46:00,28.2,8.3,30.24,SSE,158,1.7,3.1,39,0.00,,,0.00,WSDL version 420,2013-01-02 13:46:00,
2013-01-02 05:51:00,27.3,7.9,30.24,SSE,158,0.0,3.1,39,0.00,,,0.00,WSDL version 420,2013-01-02 13:51:00,
2013-01-02 05:56:00,26.5,7.6,30.24,SSE,158,0.0,2.2,40,0.00,,,0.00,WSDL version 420,2013-01-02 13:56:00,
2013-01-02 06:01:00,26.1,7.7,30.24,SSE,158,2.6,3.1,41,0.00,,,0.00,WSDL version 420,2013-01-02 14:01:00,
2013-01-02 06:06:00,26.1,7.4,30.24,SSE,158,0.0,3.1,40,0.00,,,0.00,WSDL version 420,2013-01-02 14:06:00,
2013-01-02 06:11:00,25.7,7.0,30.24,SSE,158,0.0,2.2,40,0.00,,,0.00,WSDL version 420,2013-01-02 14:11:00,
2013-01-02 06:16:00,25.3,7.0,30.24,SSE,158,0.0,2.7,41,0.00,,,0.00,WSDL version 420,2013-01-02 14:16:00,
2013-01-02 06:21:00,25.3,7.0,30.24,SSE,158,0.0,2.7,41,0.00,,,0.00,WSDL version 420,2013-01-02 14:21:00,
2013-01-02 06:26:00,24.8,7.0,30.24,SSE,158,0.0,0.0,42,0.00,,,0.00,WSDL version 420,2013-01-02 14:26:00,
2013-01-02 06:31:00,25.2,7.2,30.24,SSE,158,0.0,2.2,41,0.00,,,0.00,WSDL version 420,2013-01-02 14:31:00,
2013-01-02 06:36:00,25.3,7.4,30.24,SSE,158,1.1,2.7,42,0.00,,,0.00,WSDL version 420,2013-01-02 14:36:00,
2013-01-02 06:41:00,24.8,7.0,30.24,SSE,158,0.0,2.7,42,0.00,,,0.00,WSDL version 420,2013-01-02 14:41:00,
2013-01-02 06:46:00,24.4,6.7,30.24,SSE,158,0.0,0.0,42,0.00,,,0.00,WSDL version 420,2013-01-02 14:46:00,
2013-01-02 06:51:00,24.4,6.7,30.24,SSE,158,0.0,0.0,42,0.00,,,0.00,WSDL version 420,2013-01-02 14:51:00,
2013-01-02 06:56:00,24.3,6.8,30.24,SSE,158,0.0,0.0,43,0.00,,,0.00,WSDL version 420,2013-01-02 14:56:00,
2013-01-02 07:01:00,23.9,6.7,30.24,SSE,158,0.0,0.0,43,0.00,,,0.00,WSDL version 420,2013-01-02 15:01:00,
2013-01-02 07:07:00,23.2,6.1,30.24,SSE,158,0.0,0.0,43,0.00,,,0.00,WSDL version 420,2013-01-02 15:07:00,
2013-01-02 07:12:00,23.4,6.2,30.24,SSE,158,0.0,0.0,43,0.00,,,0.00,WSDL version 420,2013-01-02 15:12:00,
2013-01-02 07:17:00,23.6,6.4,30.24,SSE,158,0.0,0.0,43,0.00,,,0.00,WSDL version 420,2013-01-02 15:17:00,
2013-01-02 07:22:00,23.8,6.6,30.24,SSE,158,0.0,0.0,43,0.00,,,0.00,WSDL version 420,2013-01-02 15:22:00,
2013-01-02 07:27:00,23.9,6.7,30.24,SSE,158,0.0,0.0,43,0.00,,,0.00,WSDL version 420,2013-01-02 15:27:00,
2013-01-02 07:32:00,24.6,7.4,30.24,SSE,158,0.0,0.0,43,0.00,,,0.00,WSDL version 420,2013-01-02 15:32:00,
2013-01-02 07:37:00,25.3,7.9,30.24,SSE,158,0.0,0.0,42,0.00,,,0.00,WSDL version 420,2013-01-02 15:37:00,
2013-01-02 07:42:00,26.5,8.7,30.24,SSE,158,0.0,0.0,42,0.00,,,0.00,WSDL version 420,2013-01-02 15:42:00,
2013-01-02 07:47:00,27.1,9.2,30.24,SSE,158,0.0,0.0,42,0.00,,,0.00,WSDL version 420,2013-01-02 15:47:00,
2013-01-02 07:52:00,28.1,10.0,30.24,SSE,158,0.0,0.0,41,0.00,,,0.00,WSDL version 420,2013-01-02 15:52:00,
2013-01-02 07:57:00,29.1,10.6,30.24,SSE,158,0.0,0.0,41,0.00,,,0.00,WSDL version 420,2013-01-02 15:57:00,
2013-01-02 08:02:00,30.1,11.5,30.24,SSE,158,0.0,0.0,41,0.00,,,0.00,WSDL version 420,2013-01-02 16:02:00,
2013-01-02 08:07:00,30.9,11.8,30.24,SSE,158,0.0,0.0,40,0.00,,,0.00,WSDL version 420,2013-01-02 16:07:00,
2013-01-02 08:12:00,32.2,10.8,30.24,SSE,158,0.0,0.0,39,0.00,,,0.00,WSDL version 420,2013-01-02 16:12:00,
2013-01-02 08:17:00,33.4,11.2,30.24,SSE,158,0.0,0.0,37,0.00,,,0.00,WSDL version 420,2013-01-02 16:17:00,
2013-01-02 08:22:00,34.2,10.7,30.24,SSE,158,0.0,0.0,37,0.00,,,0.00,WSDL version 420,2013-01-02 16:22:00,
2013-01-02 08:27:00,35.6,11.2,30.24,SSE,158,0.0,0.0,36,0.00,,,0.00,WSDL version 420,2013-01-02 16:27:00,
2013-01-02 08:32:00,35.5,10.7,30.24,SSE,158,0.0,0.0,35,0.00,,,0.00,WSDL version 420,2013-01-02 16:32:00,
2013-01-02 08:37:00,36.5,10.8,30.24,SSE,158,0.0,0.0,34,0.00,,,0.00,WSDL version 420,2013-01-02 16:37:00,
2013-01-02 08:42:00,36.8,11.0,30.24,SSE,158,0.0,0.0,34,0.00,,,0.00,WSDL version 420,2013-01-02 16:42:00,
2013-01-02 08:47:00,37.0,11.1,30.24,SSE,158,0.0,0.0,33,0.00,,,0.00,WSDL version 420,2013-01-02 16:47:00,
2013-01-02 08:52:00,37.6,11.1,30.24,SSE,158,0.0,0.0,33,0.00,,,0.00,WSDL version 420,2013-01-02 16:52:00,
2013-01-02 08:57:00,38.3,11.4,30.24,SSE,158,0.0,0.0,32,0.00,,,0.00,WSDL version 420,2013-01-02 16:57:00,
2013-01-02 09:02:00,39.5,12.1,30.24,SSE,158,0.0,0.0,32,0.00,,,0.00,WSDL version 420,2013-01-02 17:02:00,
2013-01-02 09:07:00,41.3,13.2,30.24,SSE,158,0.0,0.0,31,0.00,,,0.00,WSDL version 420,2013-01-02 17:07:00,
2013-01-02 09:12:00,41.5,13.1,30.24,SSE,158,0.0,2.7,31,0.00,,,0.00,WSDL version 420,2013-01-02 17:12:00,
2013-01-02 09:17:00,42.0,13.3,30.24,SE,125,1.7,3.1,30,0.00,,,0.00,WSDL version 420,2013-01-02 17:17:00,
2013-01-02 09:22:00,42.5,13.2,30.24,ENE,68,0.0,3.1,30,0.00,,,0.00,WSDL version 420,2013-01-02 17:22:00,
2013-01-02 09:27:00,44.1,14.6,30.24,ENE,68,0.0,2.7,30,0.00,,,0.00,WSDL version 420,2013-01-02 17:27:00,
2013-01-02 09:32:00,44.4,14.7,30.27,ENE,68,0.0,0.0,29,0.00,,,0.00,WSDL version 420,2013-01-02 17:32:00,
2013-01-02 09:37:00,45.6,15.2,30.27,ENE,68,1.1,3.1,29,0.00,,,0.00,WSDL version 420,2013-01-02 17:37:00,
2013-01-02 09:42:00,45.6,15.2,30.27,ENE,68,0.8,3.1,29,0.00,,,0.00,WSDL version 420,2013-01-02 17:42:00,
2013-01-02 09:47:00,46.4,15.3,30.24,ENE,68,0.3,3.1,28,0.00,,,0.00,WSDL version 420,2013-01-02 17:47:00,
2013-01-02 09:52:00,46.7,15.5,30.24,ENE,68,0.0,2.7,28,0.00,,,0.00,WSDL version 420,2013-01-02 17:52:00,
2013-01-02 09:57:00,47.8,16.3,30.24,ENE,68,2.5,3.6,28,0.00,,,0.00,WSDL version 420,2013-01-02 17:57:00,
2013-01-02 10:02:00,48.3,16.3,30.24,ENE,68,0.0,3.6,28,0.00,,,0.00,WSDL version 420,2013-01-02 18:02:00,
2013-01-02 10:07:00,49.0,16.6,30.24,East,90,0.3,3.1,27,0.00,,,0.00,WSDL version 420,2013-01-02 18:07:00,
2013-01-02 10:13:00,49.3,16.8,30.24,East,90,0.0,3.1,27,0.00,,,0.00,WSDL version 420,2013-01-02 18:13:00,
2013-01-02 10:18:00,48.6,16.1,30.24,East,90,0.0,2.7,27,0.00,,,0.00,WSDL version 420,2013-01-02 18:18:00,
2013-01-02 10:23:00,49.0,16.4,30.24,East,90,0.0,2.7,27,0.00,,,0.00,WSDL version 420,2013-01-02 18:23:00,
2013-01-02 10:28:00,49.0,16.4,30.24,ENE,68,0.5,3.6,27,0.00,,,0.00,WSDL version 420,2013-01-02 18:28:00,
2013-01-02 10:33:00,49.6,17.0,30.24,ENE,68,0.6,3.6,27,0.00,,,0.00,WSDL version 420,2013-01-02 18:33:00,
2013-01-02 10:38:00,49.7,17.1,30.24,ENE,68,0.0,2.7,27,0.00,,,0.00,WSDL version 420,2013-01-02 18:38:00,
2013-01-02 10:44:00,52.0,18.3,30.24,East,85,0.9,3.6,26,0.00,,,0.00,WSDL version 420,2013-01-02 18:44:00,
2013-01-02 10:49:00,51.4,17.7,30.24,SSW,203,1.7,4.9,26,0.00,,,0.00,WSDL version 420,2013-01-02 18:49:00,
2013-01-02 10:54:00,52.4,18.5,30.24,SSW,203,0.0,4.9,26,0.00,,,0.00,WSDL version 420,2013-01-02 18:54:00,
2013-01-02 10:59:00,52.7,18.8,30.21,SSW,203,0.0,2.7,26,0.00,,,0.00,WSDL version 420,2013-01-02 18:59:00,
2013-01-02 11:04:00,53.1,18.9,30.21,SSE,158,0.9,4.0,25,0.00,,,0.00,WSDL version 420,2013-01-02 19:04:00,
2013-01-02 11:09:00,52.9,18.6,30.21,ENE,65,2.9,4.9,26,0.00,,,0.00,WSDL version 420,2013-01-02 19:09:00,
2013-01-02 11:14:00,52.2,18.4,30.21,East,82,4.8,5.8,26,0.00,,,0.00,WSDL version 420,2013-01-02 19:14:00,
2013-01-02 11:19:00,52.0,18.2,30.21,NE,35,0.0,5.8,26,0.00,,,0.00,WSDL version 420,2013-01-02 19:19:00,
2013-01-02 11:24:00,51.7,17.9,30.21,NNE,30,3.2,5.8,26,0.00,,,0.00,WSDL version 420,2013-01-02 19:24:00,
2013-01-02 11:29:00,51.9,18.1,30.21,ENE,58,1.9,5.8,26,0.00,,,0.00,WSDL version 420,2013-01-02 19:29:00,
2013-01-02 11:34:00,52.1,18.2,30.21,ENE,73,4.3,6.3,26,0.00,,,0.00,WSDL version 420,2013-01-02 19:34:00,
2013-01-02 11:39:00,51.2,17.5,30.21,NE,42,4.2,6.7,26,0.00,,,0.00,WSDL version 420,2013-01-02 19:39:00,
2013-01-02 11:44:00,51.9,18.1,30.18,ESE,110,4.9,6.7,26,0.00,,,0.00,WSDL version 420,2013-01-02 19:44:00,
2013-01-02 11:49:00,52.1,18.3,30.18,East,98,3.8,7.2,26,0.00,,,0.00,WSDL version 420,2013-01-02 19:49:00,
2013-01-02 11:54:00,52.3,18.5,30.18,East,90,3.4,7.2,26,0.00,,,0.00,WSDL version 420,2013-01-02 19:54:00,
2013-01-02 11:59:00,52.8,18.9,30.18,ESE,115,4.1,7.2,26,0.00,,,0.00,WSDL version 420,2013-01-02 19:59:00,
2013-01-02 12:04:00,52.9,18.9,30.18,ESE,110,3.7,7.2,26,0.00,,,0.00,WSDL version 420,2013-01-02 20:04:00,
2013-01-02 12:09:00,52.9,18.0,30.18,East,95,3.9,6.3,26,0.00,,,0.00,WSDL version 420,2013-01-02 20:09:00,
2013-01-02 12:14:00,53.8,17.5,30.18,East,101,3.1,5.8,24,0.00,,,0.00,WSDL version 420,2013-01-02 20:14:00,
2013-01-02 12:19:00,53.8,16.9,30.18,East,80,5.0,6.7,23,0.00,,,0.00,WSDL version 420,2013-01-02 20:19:00,
2013-01-02 12:24:00,53.9,17.6,30.18,ESE,107,4.5,8.3,23,0.00,,,0.00,WSDL version 420,2013-01-02 20:24:00,
2013-01-02 12:29:00,53.7,16.8,30.18,East,100,3.3,8.3,23,0.00,,,0.00,WSDL version 420,2013-01-02 20:29:00,
2013-01-02 12:34:00,54.2,17.2,30.18,ENE,70,3.8,7.2,23,0.00,,,0.00,WSDL version 420,2013-01-02 20:34:00,
2013-01-02 12:39:00,54.4,17.3,30.18,East,93,4.5,7.2,23,0.00,,,0.00,WSDL version 420,2013-01-02 20:39:00,
2013-01-02 12:44:00,54.6,17.6,30.15,East,93,4.4,8.1,23,0.00,,,0.00,WSDL version 420,2013-01-02 20:44:00,
2013-01-02 12:49:00,54.4,17.4,30.15,ENE,74,6.0,9.6,23,0.00,,,0.00,WSDL version 420,2013-01-02 20:49:00,
2013-01-02 12:54:00,54.4,17.4,30.15,East,93,5.4,9.6,23,0.00,,,0.00,WSDL version 420,2013-01-02 20:54:00,
2013-01-02 12:59:00,54.4,17.4,30.15,East,87,4.0,9.2,23,0.00,,,0.00,WSDL version 420,2013-01-02 20:59:00,
2013-01-02 13:04:00,54.8,17.7,30.15,East,100,4.2,8.1,23,0.00,,,0.00,WSDL version 420,2013-01-02 21:04:00,
2013-01-02 13:10:00,54.7,17.6,30.15,ENE,71,3.6,6.3,23,0.00,,,0.00,WSDL version 420,2013-01-02 21:10:00,
2013-01-02 13:15:00,55.5,17.3,30.15,East,98,3.5,6.7,22,0.00,,,0.00,WSDL version 420,2013-01-02 21:15:00,
2013-01-02 13:20:00,55.6,17.5,30.15,East,84,3.4,6.7,22,0.00,,,0.00,WSDL version 420,2013-01-02 21:20:00,
2013-01-02 13:25:00,55.8,17.5,30.15,East,85,4.6,6.3,22,0.00,,,0.00,WSDL version 420,2013-01-02 21:25:00,
2013-01-02 13:30:00,56.0,17.7,30.15,ESE,113,4.6,7.2,22,0.00,,,0.00,WSDL version 420,2013-01-02 21:30:00,
2013-01-02 13:35:00,56.1,17.8,30.15,ESE,104,3.1,7.6,22,0.00,,,0.00,WSDL version 420,2013-01-02 21:35:00,
2013-01-02 13:40:00,55.7,18.0,30.15,ENE,58,5.6,8.7,23,0.00,,,0.00,WSDL version 420,2013-01-02 21:40:00,
2013-01-02 13:45:00,55.8,17.5,30.15,NE,37,4.6,8.7,22,0.00,,,0.00,WSDL version 420,2013-01-02 21:45:00,
2013-01-02 13:50:00,55.9,17.7,30.15,ENE,60,3.4,8.7,22,0.00,,,0.00,WSDL version 420,2013-01-02 21:50:00,
2013-01-02 13:55:00,56.2,17.9,30.15,NE,37,3.8,6.3,22,0.00,,,0.00,WSDL version 420,2013-01-02 21:55:00,
2013-01-02 14:00:00,55.6,17.6,30.15,NNE,33,3.3,8.1,22,0.00,,,0.00,WSDL version 420,2013-01-02 22:00:00,
2013-01-02 14:05:00,56.0,17.9,30.15,East,100,3.5,8.3,22,0.00,,,0.00,WSDL version 420,2013-01-02 22:05:00,
2013-01-02 14:10:00,56.8,18.3,30.15,North,6,0.0,8.3,22,0.00,,,0.00,WSDL version 420,2013-01-02 22:10:00,
2013-01-02 14:15:00,57.0,18.6,30.15,East,79,3.0,5.8,22,0.00,,,0.00,WSDL version 420,2013-01-02 22:15:00,
2013-01-02 14:20:00,57.3,18.8,30.15,East,93,2.0,4.0,22,0.00,,,0.00,WSDL version 420,2013-01-02 22:20:00,
2013-01-02 14:25:00,57.7,19.2,30.15,ESE,103,3.7,6.3,22,0.00,,,0.00,WSDL version 420,2013-01-02 22:25:00,
2013-01-02 14:30:00,57.2,18.7,30.15,East,79,3.3,6.3,22,0.00,,,0.00,WSDL version 420,2013-01-02 22:30:00,
2013-01-02 14:35:00,57.3,18.8,30.15,East,80,2.3,5.8,22,0.00,,,0.00,WSDL version 420,2013-01-02 22:35:00,
2013-01-02 14:40:00,57.3,18.8,30.15,East,101,2.9,5.8,22,0.00,,,0.00,WSDL version 420,2013-01-02 22:40:00,
2013-01-02 14:45:00,57.2,18.7,30.15,ENE,65,4.4,8.3,22,0.00,,,0.00,WSDL version 420,2013-01-02 22:45:00,
2013-01-02 14:50:00,56.6,18.2,30.15,East,83,3.7,8.3,22,0.00,,,0.00,WSDL version 420,2013-01-02 22:50:00,
2013-01-02 14:55:00,56.5,18.1,30.15,ENE,68,3.7,6.3,22,0.00,,,0.00,WSDL version 420,2013-01-02 22:55:00,
2013-01-02 15:00:00,56.6,18.2,30.15,ENE,59,4.0,8.1,22,0.00,,,0.00,WSDL version 420,2013-01-02 23:00:00,
2013-01-02 15:05:00,56.6,18.2,30.15,East,84,4.3,8.1,22,0.00,,,0.00,WSDL version 420,2013-01-02 23:05:00,
2013-01-02 15:10:00,56.6,18.2,30.15,ENE,65,3.8,6.7,22,0.00,,,0.00,WSDL version 420,2013-01-02 23:10:00,
2013-01-02 15:15:00,56.6,18.2,30.15,ENE,70,5.1,7.6,22,0.00,,,0.00,WSDL version 420,2013-01-02 23:15:00,
2013-01-02 15:20:00,56.1,17.8,30.15,East,82,5.5,8.1,22,0.00,,,0.00,WSDL version 420,2013-01-02 23:20:00,
2013-01-02 15:25:00,56.0,17.7,30.15,NE,56,3.5,8.1,22,0.00,,,0.00,WSDL version 420,2013-01-02 23:25:00,
2013-01-02 15:31:00,55.7,17.5,30.15,ENE,65,5.3,8.1,22,0.00,,,0.00,WSDL version 420,2013-01-02 23:31:00,
2013-01-02 15:36:00,55.3,17.8,30.15,ENE,76,3.2,8.1,22,0.00,,,0.00,WSDL version 420,2013-01-02 23:36:00,
2013-01-02 15:41:00,55.0,17.7,30.15,ENE,63,4.3,8.1,23,0.00,,,0.00,WSDL version 420,2013-01-02 23:41:00,
2013-01-02 15:46:00,55.0,17.9,30.15,ENE,75,2.9,8.1,23,0.00,,,0.00,WSDL version 420,2013-01-02 23:46:00,
2013-01-02 15:51:00,55.0,17.8,30.15,ENE,70,4.8,6.3,23,0.00,,,0.00,WSDL version 420,2013-01-02 23:51:00,
2013-01-02 15:56:00,54.6,17.5,30.15,NE,38,4.5,7.6,23,0.00,,,0.00,WSDL version 420,2013-01-02 23:56:00,
2013-01-02 16:01:00,54.1,17.2,30.15,ENE,59,4.4,7.6,23,0.00,,,0.00,WSDL version 420,2013-01-03 00:01:00,
2013-01-02 16:06:00,53.9,17.0,30.15,NE,53,3.6,6.7,23,0.00,,,0.00,WSDL version 420,2013-01-03 00:06:00,
2013-01-02 16:11:00,53.8,16.9,30.15,NNE,30,3.9,5.8,23,0.00,,,0.00,WSDL version 420,2013-01-03 00:11:00,
2013-01-02 16:16:00,53.6,16.7,30.15,NE,42,3.6,6.3,23,0.00,,,0.00,WSDL version 420,2013-01-03 00:16:00,
2013-01-02 16:21:00,53.5,16.6,30.15,ENE,60,1.5,6.3,23,0.00,,,0.00,WSDL version 420,2013-01-03 00:21:00,
2013-01-02 16:26:00,53.2,16.4,30.15,ENE,68,2.8,6.3,23,0.00,,,0.00,WSDL version 420,2013-01-03 00:26:00,
2013-01-02 16:31:00,52.9,16.1,30.15,ENE,60,3.0,6.3,23,0.00,,,0.00,WSDL version 420,2013-01-03 00:31:00,
2013-01-02 16:36:00,52.5,15.7,30.15,ENE,62,2.1,4.9,23,0.00,,,0.00,WSDL version 420,2013-01-03 00:36:00,
2013-01-02 16:42:00,51.9,15.4,30.15,ENE,68,2.5,4.9,24,0.00,,,0.00,WSDL version 420,2013-01-03 00:42:00,
2013-01-02 16:47:00,51.4,15.8,30.15,ENE,65,2.5,3.6,24,0.00,,,0.00,WSDL version 420,2013-01-03 00:47:00,
2013-01-02 16:52:00,50.7,15.2,30.15,ENE,68,0.0,3.6,24,0.00,,,0.00,WSDL version 420,2013-01-03 00:52:00,
2013-01-02 16:57:00,50.1,14.7,30.15,ENE,68,0.0,2.2,24,0.00,,,0.00,WSDL version 420,2013-01-03 00:57:00,
2013-01-02 17:02:00,49.2,14.0,30.15,ENE,68,0.0,2.2,24,0.00,,,0.00,WSDL version 420,2013-01-03 01:02:00,
2013-01-02 17:07:00,48.6,13.4,30.15,ENE,68,0.0,2.2,24,0.00,,,0.00,WSDL version 420,2013-01-03 01:07:00,
2013-01-02 17:12:00,47.6,12.6,30.15,ENE,68,0.0,2.2,24,0.00,,,0.00,WSDL version 420,2013-01-03 01:12:00,
2013-01-02 17:17:00,46.7,14.0,30.15,ENE,68,0.0,0.0,27,0.00,,,0.00,WSDL version 420,2013-01-03 01:17:00,
2013-01-02 17:22:00,46.1,14.0,30.15,ENE,68,0.0,0.0,27,0.00,,,0.00,WSDL version 420,2013-01-03 01:22:00,
2013-01-02 17:27:00,45.2,13.2,30.15,ENE,68,0.0,2.2,27,0.00,,,0.00,WSDL version 420,2013-01-03 01:27:00,
2013-01-02 17:32:00,44.7,13.0,30.15,ENE,68,0.0,2.2,28,0.00,,,0.00,WSDL version 420,2013-01-03 01:32:00,
2013-01-02 17:37:00,43.7,12.7,30.15,ENE,68,0.0,0.0,28,0.00,,,0.00,WSDL version 420,2013-01-03 01:37:00,
2013-01-02 17:42:00,43.2,12.3,30.15,ENE,68,0.0,0.0,28,0.00,,,0.00,WSDL version 420,2013-01-03 01:42:00,
2013-01-02 17:47:00,42.5,11.7,30.15,ENE,68,0.0,0.0,28,0.00,,,0.00,WSDL version 420,2013-01-03 01:47:00,
2013-01-02 17:52:00,42.1,11.4,30.15,ENE,68,0.8,2.7,28,0.00,,,0.00,WSDL version 420,2013-01-03 01:52:00,
2013-01-02 17:57:00,41.9,11.2,30.15,ENE,68,0.0,2.7,28,0.00,,,0.00,WSDL version 420,2013-01-03 01:57:00,
2013-01-02 18:02:00,41.1,10.7,30.15,ENE,68,0.0,2.2,29,0.00,,,0.00,WSDL version 420,2013-01-03 02:02:00,
2013-01-02 18:07:00,40.4,10.6,30.15,ENE,68,0.0,0.0,29,0.00,,,0.00,WSDL version 420,2013-01-03 02:07:00,
2013-01-02 18:12:00,39.8,10.2,30.15,ENE,68,1.2,2.7,29,0.00,,,0.00,WSDL version 420,2013-01-03 02:12:00,
2013-01-02 18:17:00,39.4,9.8,30.18,ENE,68,0.0,2.7,29,0.00,,,0.00,WSDL version 420,2013-01-03 02:17:00,
2013-01-02 18:22:00,38.7,9.4,30.18,ENE,68,0.0,0.0,30,0.00,,,0.00,WSDL version 420,2013-01-03 02:22:00,
2013-01-02 18:27:00,38.2,9.5,30.18,ENE,68,0.0,2.2,30,0.00,,,0.00,WSDL version 420,2013-01-03 02:27:00,
2013-01-02 18:32:00,38.2,9.5,30.15,ENE,68,0.0,2.2,30,0.00,,,0.00,WSDL version 420,2013-01-03 02:32:00,
2013-01-02 18:37:00,37.6,9.0,30.15,ENE,68,0.0,2.7,30,0.00,,,0.00,WSDL version 420,2013-01-03 02:37:00,
2013-01-02 18:42:00,37.5,8.8,30.15,ENE,68,0.0,2.7,30,0.00,,,0.00,WSDL version 420,2013-01-03 02:42:00,
2013-01-02 18:47:00,37.4,8.8,30.15,ENE,68,0.0,2.7,30,0.00,,,0.00,WSDL version 420,2013-01-03 02:47:00,
2013-01-02 18:52:00,37.3,8.7,30.15,ENE,68,0.0,3.6,30,0.00,,,0.00,WSDL version 420,2013-01-03 02:52:00,
2013-01-02 18:57:00,37.1,8.5,30.15,ENE,68,0.0,3.6,30,0.00,,,0.00,WSDL version 420,2013-01-03 02:57:00,
2013-01-02 19:02:00,36.6,8.1,30.15,ENE,68,0.0,2.7,30,0.00,,,0.00,WSDL version 420,2013-01-03 03:02:00,
2013-01-02 19:07:00,36.4,7.9,30.15,ENE,68,0.0,2.2,30,0.00,,,0.00,WSDL version 420,2013-01-03 03:07:00,
2013-01-02 19:12:00,36.4,7.9,30.15,ENE,68,0.0,2.2,30,0.00,,,0.00,WSDL version 420,2013-01-03 03:12:00,
2013-01-02 19:17:00,36.3,7.8,30.15,ENE,68,0.0,2.2,30,0.00,,,0.00,WSDL version 420,2013-01-03 03:17:00,
2013-01-02 19:22:00,36.3,7.8,30.15,ENE,68,0.7,2.7,30,0.00,,,0.00,WSDL version 420,2013-01-03 03:22:00,
2013-01-02 19:27:00,36.1,7.7,30.15,ENE,68,0.0,2.7,30,0.00,,,0.00,WSDL version 420,2013-01-03 03:27:00,
2013-01-02 19:32:00,35.6,7.2,30.15,ENE,68,0.0,2.2,30,0.00,,,0.00,WSDL version 420,2013-01-03 03:32:00,
2013-01-02 19:38:00,35.3,7.4,30.15,ENE,68,0.0,0.0,31,0.00,,,0.00,WSDL version 420,2013-01-03 03:38:00,
2013-01-02 19:46:00,34.8,7.2,30.18,ENE,68,0.0,0.0,31,0.00,,,0.00,WSDL version 420,2013-01-03 03:46:00,
2013-01-02 19:52:00,34.9,7.3,30.18,ENE,68,0.0,0.0,31,0.00,,,0.00,WSDL version 420,2013-01-03 03:52:00,
2013-01-02 19:57:00,34.9,7.3,30.18,ENE,68,0.0,0.0,31,0.00,,,0.00,WSDL version 420,2013-01-03 03:57:00,
2013-01-02 20:02:00,35.1,7.5,30.15,ENE,68,0.0,2.2,31,0.00,,,0.00,WSDL version 420,2013-01-03 04:02:00,
2013-01-02 20:07:00,35.3,7.6,30.15,ENE,68,0.0,2.2,31,0.00,,,0.00,WSDL version 420,2013-01-03 04:07:00,
2013-01-02 20:12:00,35.2,7.6,30.15,ENE,68,0.0,2.2,31,0.00,,,0.00,WSDL version 420,2013-01-03 04:12:00,
2013-01-02 20:17:00,34.6,7.1,30.15,ENE,68,0.0,2.2,31,0.00,,,0.00,WSDL version 420,2013-01-03 04:17:00,
2013-01-02 20:22:00,34.3,6.8,30.15,ENE,68,0.0,2.2,31,0.00,,,0.00,WSDL version 420,2013-01-03 04:22:00,
2013-01-02 20:27:00,33.8,6.3,30.15,ENE,68,0.0,2.2,31,0.00,,,0.00,WSDL version 420,2013-01-03 04:27:00,
2013-01-02 20:32:00,33.2,5.8,30.15,ENE,68,0.0,0.0,31,0.00,,,0.00,WSDL version 420,2013-01-03 04:32:00,
2013-01-02 20:37:00,33.1,5.7,30.15,ENE,68,0.0,0.0,31,0.00,,,0.00,WSDL version 420,2013-01-03 04:37:00,
2013-01-02 20:42:00,32.8,5.4,30.15,ENE,68,0.0,2.2,31,0.00,,,0.00,WSDL version 420,2013-01-03 04:42:00,
2013-01-02 20:47:00,32.7,5.7,30.15,ENE,68,0.0,2.2,32,0.00,,,0.00,WSDL version 420,2013-01-03 04:47:00,
2013-01-02 20:52:00,32.7,6.0,30.15,ENE,68,0.0,2.2,32,0.00,,,0.00,WSDL version 420,2013-01-03 04:52:00,
2013-01-02 20:57:00,32.5,5.9,30.15,ENE,68,0.0,0.0,32,0.00,,,0.00,WSDL version 420,2013-01-03 04:57:00,
2013-01-02 21:02:00,32.3,5.7,30.15,ENE,68,0.0,0.0,32,0.00,,,0.00,WSDL version 420,2013-01-03 05:02:00,
2013-01-02 21:03:00,32.3,5.7,30.15,ENE,68,0.0,0.0,32,0.00,,,0.00,WSDL version 420,2013-01-03 05:03:00,
2013-01-02 21:08:00,32.8,6.2,30.15,ENE,68,0.0,2.7,32,0.00,,,0.00,WSDL version 420,2013-01-03 05:08:00,
2013-01-02 21:09:00,32.9,6.3,30.15,ENE,68,0.0,2.7,32,0.00,,,0.00,WSDL version 420,2013-01-03 05:09:00,
2013-01-02 21:14:00,33.0,6.3,30.15,ENE,68,0.0,2.7,32,0.00,,,0.00,WSDL version 420,2013-01-03 05:14:00,
2013-01-02 21:19:00,33.1,6.4,30.15,ENE,68,2.7,3.6,32,0.00,,,0.00,WSDL version 420,2013-01-03 05:19:00,
2013-01-02 21:24:00,32.8,6.0,30.15,ENE,68,2.2,3.6,32,0.00,,,0.00,WSDL version 420,2013-01-03 05:24:00,
2013-01-02 21:29:00,32.7,5.5,30.18,ENE,68,1.0,3.1,31,0.00,,,0.00,WSDL version 420,2013-01-03 05:29:00,
2013-01-02 21:34:00,32.6,5.3,30.18,ENE,68,2.0,2.7,31,0.00,,,0.00,WSDL version 420,2013-01-03 05:34:00,
2013-01-02 21:35:00,32.6,5.3,30.18,ENE,68,1.5,2.7,31,0.00,,,0.00,WSDL version 420,2013-01-03 05:35:00,
2013-01-02 21:40:00,32.2,5.0,30.18,ENE,68,0.0,2.7,31,0.00,,,0.00,WSDL version 420,2013-01-03 05:40:00,
2013-01-02 21:45:00,31.8,7.2,30.18,ENE,68,2.1,3.1,31,0.00,,,0.00,WSDL version 420,2013-01-03 05:45:00,
2013-01-02 21:51:00,32.1,6.3,30.18,ENE,68,2.2,3.6,31,0.00,,,0.00,WSDL version 420,2013-01-03 05:51:00,
2013-01-02 21:56:00,31.8,7.5,30.18,ENE,68,0.0,3.6,31,0.00,,,0.00,WSDL version 420,2013-01-03 05:56:00,
2013-01-02 22:01:00,31.1,7.1,30.18,ENE,68,0.2,3.1,32,-99.99,,,-99.99,WSDL version 420,2013-01-03 06:01:00,
2013-01-02 22:06:00,30.5,6.9,30.18,ENE,68,0.0,3.1,32,0.00,,,0.00,WSDL version 420,2013-01-03 06:06:00,
2013-01-02 22:11:00,30.1,6.6,30.18,ENE,68,0.0,0.0,32,0.00,,,0.00,WSDL version 420,2013-01-03 06:11:00,
2013-01-02 22:16:00,30.1,7.0,30.18,ENE,68,0.0,0.0,33,0.00,,,0.00,WSDL version 420,2013-01-03 06:16:00,
2013-01-02 22:21:00,29.5,6.7,30.18,ENE,68,0.0,0.0,33,0.00,,,0.00,WSDL version 420,2013-01-03 06:21:00,
2013-01-02 22:26:00,29.0,6.2,30.18,ENE,68,0.0,0.0,33,0.00,,,0.00,WSDL version 420,2013-01-03 06:26:00,
2013-01-02 22:31:00,29.1,6.4,30.18,ENE,68,0.0,0.0,34,0.00,,,0.00,WSDL version 420,2013-01-03 06:31:00,
2013-01-02 22:37:00,28.6,6.4,30.18,ENE,68,0.0,0.0,34,0.00,,,0.00,WSDL version 420,2013-01-03 06:37:00,
2013-01-02 22:42:00,28.3,6.2,30.18,ENE,68,0.0,0.0,34,0.00,,,0.00,WSDL version 420,2013-01-03 06:42:00,
2013-01-02 22:47:00,28.9,6.7,30.18,ENE,68,1.5,2.7,34,0.00,,,0.00,WSDL version 420,2013-01-03 06:47:00,
2013-01-02 22:52:00,28.8,6.6,30.18,ENE,68,0.0,2.7,34,0.00,,,0.00,WSDL version 420,2013-01-03 06:52:00,
2013-01-02 22:57:00,29.3,7.0,30.18,ENE,68,1.0,3.1,34,0.00,,,0.00,WSDL version 420,2013-01-03 06:57:00,
2013-01-02 23:02:00,29.3,7.0,30.18,ENE,68,0.0,3.1,34,0.00,,,0.00,WSDL version 420,2013-01-03 07:02:00,
2013-01-02 23:07:00,29.4,7.2,30.18,ENE,68,0.0,2.7,34,0.00,,,0.00,WSDL version 420,2013-01-03 07:07:00,
2013-01-02 23:12:00,29.7,7.4,30.18,ENE,68,0.0,2.7,34,0.00,,,0.00,WSDL version 420,2013-01-03 07:12:00,
2013-01-02 23:17:00,29.4,7.1,30.18,ENE,68,0.0,2.2,34,0.00,,,0.00,WSDL version 420,2013-01-03 07:17:00,
2013-01-02 23:22:00,29.2,6.9,30.18,ENE,68,0.2,3.1,34,0.00,,,0.00,WSDL version 420,2013-01-03 07:22:00,
2013-01-02 23:27:00,28.7,6.5,30.18,ENE,68,2.5,3.6,34,0.00,,,0.00,WSDL version 420,2013-01-03 07:27:00,
2013-01-02 23:32:00,28.7,6.7,30.18,ENE,68,2.4,3.6,35,0.00,,,0.00,WSDL version 420,2013-01-03 07:32:00,
2013-01-02 23:37:00,28.4,6.6,30.18,ENE,68,0.0,3.6,35,0.00,,,0.00,WSDL version 420,2013-01-03 07:37:00,
2013-01-02 23:42:00,28.1,6.5,30.18,ENE,68,0.0,2.2,35,0.00,,,0.00,WSDL version 420,2013-01-03 07:42:00,
2013-01-02 23:47:00,28.2,6.6,30.18,ENE,68,2.1,3.6,35,0.00,,,0.00,WSDL version 420,2013-01-03 07:47:00,
2013-01-02 23:52:00,28.1,6.5,30.18,ENE,68,0.0,3.6,35,0.00,,,0.00,WSDL version 420,2013-01-03 07:52:00,
2013-01-02 23:57:00,27.6,6.1,30.18,ENE,68,0.0,3.6,35,0.00,,,0.00,WSDL version 420,2013-01-03 07:57:00,